Weather History for 12424 - August, 2013

Change the Weather History Date:

Friday, August 16, 2013

  Actual Average Record
Temperature  
Mean Temperature 62 °F -  
Max Temperature 78 °F 70 °F - ()
Min Temperature 47 °F 50 °F - ()
Degree Days  
Heating Degree Days 2    
Growing Degree Days 12 (Base 50)    
Moisture  
Dew Point 48 °F    
Average Humidity 61    
Maximum Humidity 94    
Minimum Humidity 19    
Precipitation  
Precipitation 0.00 in 0.08 in - ()
Sea Level Pressure  
Sea Level Pressure 30.19 in    
Wind  
Wind Speed 3 mph ()    
Max Wind Speed 9 mph    
Max Gust Speed -    
Visibility 6.2 miles    
Events Fog    
T = Trace of Precipitation, MM = Missing Value Source: Averaged Metar Reports

Daily Weather History Graph

Daily Weather History Graph

Search for Another Location

Airport or City:

Trip Planner

Search our weather history database for the weather conditions in past years. The results will help you decide how hot, cold, wet, or windy it might be!

Date:

Astronomy

Aug. 16, 2013 Rise Set
Actual Time 5:40 AM CEST 8:11 PM CEST
Civil Twilight 5:03 AM CEST 8:48 PM CEST
Nautical Twilight 4:16 AM CEST 9:35 PM CEST
Astronomical Twilight 3:20 AM CEST 10:30 PM CEST
Moon 4:26 PM CEST (8/16) 12:14 AM CEST (8/16)
Length of Visible Light 15h 44m
Length of Day
14h 31m
Waxing Gibbous, 72% of the Moon is Illuminated
Aug 16
Waxing Gibbous
Aug 21
Full
Aug 28
Last Quarter
Sep 5
New
Sep 12
First Quarter

Hourly Weather History & Observations

Time (CEST) Temp. Dew Point Humidity Pressure Visibility Wind Dir Wind Speed Gust Speed Precip Events Conditions
12:00 AM 55.4 °F 48.2 °F 77% 30.24 in - Calm Calm - N/A   Clear
12:30 AM 53.6 °F 48.2 °F 82% 30.24 in - Calm Calm - N/A   Clear
1:00 AM 53.6 °F 50.0 °F 88% 30.24 in - Calm Calm - N/A   Clear
1:30 AM 53.6 °F 50.0 °F 88% 30.24 in - East 1.2 mph - N/A   Clear
2:00 AM 51 °F 48 °F 86% 30.25 in 25 mi Calm Calm - -   Clear
2:00 AM 51.8 °F 50.0 °F 94% 30.24 in - ESE 1.2 mph - N/A   Clear
2:30 AM 51.8 °F 48.2 °F 88% 30.24 in - ESE 2.3 mph - N/A   Clear
3:00 AM 50.0 °F 48.2 °F 94% 30.21 in - ESE 1.2 mph - N/A   Clear
3:30 AM 50.0 °F 48.2 °F 94% 30.21 in 6.2 mi Calm Calm - N/A Fog Shallow Fog
4:00 AM 50.0 °F 48.2 °F 94% 30.21 in 6.2 mi SE 1.2 mph - N/A Fog Shallow Fog
4:30 AM 50.0 °F 48.2 °F 94% 30.21 in 6.2 mi Variable 1.2 mph - N/A Fog Shallow Fog
5:00 AM 49 °F 47 °F 92% 30.24 in 25 mi Calm Calm - - Fog Patches of Fog
5:00 AM 48.2 °F 46.4 °F 93% 30.21 in 6.2 mi SSE 2.3 mph - N/A Fog Shallow Fog
5:30 AM 48.2 °F 46.4 °F 93% 30.21 in 6.2 mi Variable 1.2 mph - N/A Fog Shallow Fog
6:00 AM 48.2 °F 46.4 °F 93% 30.21 in 6.2 mi NW 1.2 mph - N/A Fog Shallow Fog
6:30 AM 48.2 °F 46.4 °F 93% 30.21 in 6.2 mi Calm Calm - N/A Fog Shallow Fog
7:00 AM 50.0 °F 48.2 °F 94% 30.21 in - ESE 3.5 mph - N/A   Clear
7:30 AM 53.6 °F 50.0 °F 88% 30.21 in - SE 2.3 mph - N/A   Clear
8:00 AM 55 °F 51 °F 81% 30.24 in 31 mi SSE 4.5 mph - -   Scattered Clouds
8:00 AM 57.2 °F 51.8 °F 82% 30.21 in - SE 3.5 mph - N/A   Clear
8:30 AM 59.0 °F 51.8 °F 77% 30.24 in - ESE 3.5 mph - N/A   Clear
9:00 AM 62.6 °F 53.6 °F 72% 30.24 in - ESE 3.5 mph - N/A   Clear
9:30 AM 64.4 °F 53.6 °F 68% 30.24 in - SE 5.8 mph - N/A   Clear
10:00 AM 66.2 °F 51.8 °F 60% 30.24 in - SE 3.5 mph - N/A   Clear
10:30 AM 69.8 °F 53.6 °F 56% 30.24 in - SE 4.6 mph - N/A   Clear
11:00 AM 70 °F 50 °F 37% 30.22 in 31 mi SE 6.7 mph - -   Scattered Clouds
11:00 AM 71.6 °F 51.8 °F 50% 30.21 in - SE 5.8 mph - N/A   Clear
11:30 AM 73.4 °F 48.2 °F 41% 30.21 in - SE 6.9 mph - N/A   Clear
12:00 PM 75.2 °F 46.4 °F 36% 30.21 in - SE 9.2 mph - N/A   Clear
12:30 PM 75.2 °F 42.8 °F 31% 30.21 in - South 6.9 mph - N/A   Clear
1:00 PM 77.0 °F 42.8 °F 29% 30.18 in - SE 8.1 mph - N/A   Clear
1:30 PM 77.0 °F 42.8 °F 29% 30.18 in - South 5.8 mph - N/A   Clear
2:00 PM 75 °F 41 °F 19% 30.17 in 31 mi SSE 8.9 mph - -   Scattered Clouds
2:00 PM 77.0 °F 42.8 °F 29% 30.18 in - South 6.9 mph - N/A   Clear
2:30 PM 77.0 °F 42.8 °F 29% 30.18 in - SSE 6.9 mph - N/A   Clear
3:00 PM 78.8 °F 42.8 °F 28% 30.18 in - SSE 5.8 mph - N/A   Clear
3:30 PM 78.8 °F 44.6 °F 30% 30.15 in - ESE 9.2 mph - N/A   Clear
4:00 PM 78.8 °F 44.6 °F 30% 30.15 in - SE 8.1 mph - N/A   Clear
4:30 PM 78.8 °F 46.4 °F 32% 30.15 in - SSE 5.8 mph - N/A   Clear
5:00 PM 76 °F 43 °F 20% 30.13 in 31 mi ESE 8.9 mph - -   Clear
5:00 PM 78.8 °F 48.2 °F 34% 30.15 in - ESE 9.2 mph - N/A   Clear
5:30 PM 78.8 °F 44.6 °F 30% 30.15 in - ESE 6.9 mph - N/A   Clear
6:00 PM 75.2 °F 48.2 °F 38% 30.12 in - ESE 6.9 mph - N/A   Clear
6:30 PM 75.2 °F 50.0 °F 41% 30.12 in - ESE 4.6 mph - N/A   Clear
7:00 PM 75.2 °F 48.2 °F 38% 30.12 in - ESE 4.6 mph - N/A   Clear
7:30 PM 71.6 °F 50.0 °F 46% 30.12 in - ESE 6.9 mph - N/A   Clear
8:00 PM 71.6 °F 48.2 °F 43% 30.12 in - ESE 4.6 mph - N/A   Clear
8:30 PM 66.2 °F 50.0 °F 56% 30.12 in - SE 3.5 mph - N/A   Clear
9:00 PM 66.2 °F 50.0 °F 56% 30.12 in - SSE 2.3 mph - N/A   Clear
9:30 PM 64.4 °F 50.0 °F 59% 30.12 in - SSE 2.3 mph - N/A   Clear
10:00 PM 62.6 °F 50.0 °F 63% 30.12 in - SSE 1.2 mph - N/A   Clear
10:30 PM 62.6 °F 50.0 °F 63% 30.12 in - SE 2.3 mph - N/A   Clear
11:00 PM 60 °F 50 °F 60% 30.13 in 31 mi Calm Calm - -   Clear
11:00 PM 60.8 °F 50.0 °F 68% 30.12 in - ESE 1.2 mph - N/A   Clear
11:30 PM 59.0 °F 53.6 °F 82% 30.12 in - South 1.2 mph - N/A   Clear